Kirksville, MO

7:00 AM CST on November 18, 2017 (GMT -0600)
Kirksville Regional

Weather History for KIRK - February, 2014

Change the Weather History Date:

Saturday, February 1, 2014

  Actual Average Record
Temperature  
Mean Temperature 21 °F 27 °F  
Max Temperature 25 °F 36 °F 62 °F (1989)
Min Temperature 16 °F 18 °F -13 °F (1918)
Degree Days  
Heating Degree Days 44 38  
Month to date heating degree days 44 38  
Since 1 July heating degree days 3730 3585  
Cooling Degree Days 0 0  
Month to date cooling degree days 0 0  
Year to date cooling degree days 0 0  
Moisture  
Dew Point 15 °F    
Average Humidity 81    
Maximum Humidity 88    
Minimum Humidity 74    
Precipitation  
Precipitation 0.44 in 0.05 in 0.44 in (2014)
Month to date precipitation 0.44 0.05  
Year to date precipitation 1.30 1.32  
Sea Level Pressure  
Sea Level Pressure 29.98 in    
Wind  
Wind Speed 10 mph (North)    
Max Wind Speed 17 mph    
Max Gust Speed 23 mph    
Visibility 5 miles    
Events Fog , Snow    
T = Trace of Precipitation, MM = Missing Value Source: NWS Daily Summary

Daily Weather History Graph

Daily Weather History Graph

Search for Another Location

Airport or City:

Trip Planner

Search our weather history database for the weather conditions in past years. The results will help you decide how hot, cold, wet, or windy it might be!

Date:

Astronomy

Feb. 01, 2014 Rise Set
Actual Time 7:18 AM CST 5:29 PM CST
Civil Twilight 6:50 AM CST 5:57 PM CST
Nautical Twilight 6:17 AM CST 6:30 PM CST
Astronomical Twilight 5:45 AM CST 7:02 PM CST
Moon 8:08 AM CST (2/1) 8:05 PM CST (2/1)
Length of Visible Light 11h 07m
Length of Day
10h 10m
Waxing Crescent, 5% of the Moon is Illuminated
Feb 1
Waxing Crescent
Feb 6
First Quarter
Feb 14
Full
Feb 22
Last Quarter
Mar 1
New

Hourly Weather History & Observations

Time (CST) Temp. Windchill Dew Point Humidity Pressure Visibility Wind Dir Wind Speed Gust Speed Precip Events Conditions
12:31 AM 16.0 °F 4.4 °F 14.0 °F 92% 29.94 in 2.5 mi ENE 9.2 mph - N/A   Overcast
12:40 AM 16.0 °F 4.4 °F 14.0 °F 92% 29.94 in 1.8 mi ENE 9.2 mph - 0.00 in Snow Light Snow
12:55 AM 17.1 °F 7.6 °F 14.0 °F 88% 30.01 in 1.8 mi ENE 6.9 mph - 0.00 in Snow Light Snow
1:12 AM 17.1 °F 6.6 °F 14.0 °F 88% 29.91 in 0.8 mi ENE 8.1 mph - 0.01 in Snow Light Snow
1:20 AM 17.1 °F 6.6 °F 14.0 °F 88% 29.91 in 1.2 mi ENE 8.1 mph - 0.01 in Snow Light Snow
1:34 AM 17.1 °F 7.6 °F 14.0 °F 88% 29.91 in 2.0 mi NE 6.9 mph - 0.02 in Snow Light Snow
1:43 AM 17.1 °F 7.6 °F 14.0 °F 88% 29.91 in 2.5 mi ENE 6.9 mph - 0.03 in Snow Light Snow
1:55 AM 17.1 °F 7.6 °F 14.0 °F 88% 29.96 in 2.0 mi ENE 6.9 mph - 0.03 in Snow Light Snow
2:06 AM 17.1 °F 8.7 °F 14.0 °F 88% 29.91 in 1.5 mi ENE 5.8 mph - 0.01 in Snow Light Snow
2:13 AM 17.1 °F 10.0 °F 14.0 °F 88% 29.92 in 0.8 mi NE 4.6 mph - 0.02 in Snow Light Snow
2:22 AM 17.1 °F 8.7 °F 14.0 °F 88% 29.92 in 0.5 mi NE 5.8 mph - 0.04 in Fog , Snow Snow
2:55 AM 17.1 °F 6.6 °F 14.0 °F 88% 29.96 in 0.5 mi NE 8.1 mph - 0.10 in Fog , Snow Snow
3:55 AM 17.1 °F 5.8 °F 14.0 °F 88% 29.93 in 0.5 mi NNE 9.2 mph - 0.11 in Fog , Snow Snow
4:01 AM 17.1 °F 5.8 °F 14.0 °F 88% 29.87 in 0.8 mi NNE 9.2 mph - 0.00 in Snow Light Snow
4:10 AM 17.1 °F 5.8 °F 14.0 °F 88% 29.88 in 1.5 mi NE 9.2 mph - 0.05 in Snow Light Snow
4:34 AM 17.1 °F 5.0 °F 14.0 °F 88% 29.87 in 0.8 mi NNE 10.4 mph - 0.07 in Snow Light Snow
4:40 AM 17.1 °F 4.3 °F 14.0 °F 88% 29.86 in 0.5 mi NNE 11.5 mph - 0.08 in Fog , Snow Snow
4:55 AM 17.1 °F 5.0 °F 14.0 °F 88% 29.92 in 0.8 mi NNE 10.4 mph - 0.11 in Snow Light Snow
5:04 AM 17.1 °F 5.8 °F 14.0 °F 88% 29.87 in 1.5 mi North 9.2 mph - 0.02 in Snow Light Snow
5:24 AM 17.1 °F 6.6 °F 14.0 °F 88% 29.88 in 2.5 mi North 8.1 mph - 0.03 in Snow Light Snow
5:38 AM 17.1 °F 5.0 °F 14.0 °F 88% 29.88 in 1.0 mi North 10.4 mph - 0.03 in Snow Light Snow
5:55 AM 17.1 °F 4.3 °F 14.0 °F 88% 29.94 in 1.5 mi NNE 11.5 mph - 0.05 in Snow Light Snow
6:29 AM 17.1 °F 4.3 °F 12.9 °F 84% 29.86 in 2.0 mi NNE 11.5 mph - 0.01 in Snow Light Snow
6:39 AM 17.1 °F 5.8 °F 12.9 °F 84% 29.89 in 4.0 mi NNW 9.2 mph - 0.02 in Snow Light Snow
6:52 AM 17.6 °F 7.3 °F 12.2 °F 79% 29.89 in 7.0 mi North 8.1 mph - 0.03 in   Overcast
6:55 AM 17.1 °F 5.0 °F 12.9 °F 84% 29.94 in 7.0 mi North 10.4 mph - 0.03 in   Overcast
7:22 AM 17.1 °F 5.0 °F 12.9 °F 84% 29.89 in 3.0 mi North 10.4 mph - 0.00 in Snow Light Snow
7:29 AM 17.1 °F 5.0 °F 12.9 °F 84% 29.89 in 1.8 mi North 10.4 mph - 0.00 in Snow Light Snow
7:37 AM 17.1 °F 4.3 °F 12.9 °F 84% 29.89 in 2.5 mi North 11.5 mph - 0.00 in Snow Light Snow
7:48 AM 17.1 °F 5.0 °F 12.9 °F 84% 29.89 in 1.5 mi North 10.4 mph - 0.01 in Snow Light Snow
7:55 AM 17.1 °F 5.8 °F 12.9 °F 84% 29.94 in 2.0 mi North 9.2 mph - 0.01 in Snow Light Snow
8:14 AM 17.1 °F 5.0 °F 12.9 °F 84% 29.87 in 5.0 mi NNE 10.4 mph - 0.00 in Snow Light Snow
8:55 AM 17.1 °F 5.0 °F 12.9 °F 84% 29.95 in 9.0 mi North 10.4 mph - 0.00 in   Overcast
9:42 AM 18.0 °F 6.1 °F 12.9 °F 81% 29.93 in 9.0 mi North 10.4 mph - N/A   Overcast
9:55 AM 18.0 °F 6.9 °F 12.9 °F 81% 29.99 in 9.0 mi North 9.2 mph - N/A   Overcast
10:06 AM 18.0 °F 6.1 °F 12.9 °F 81% 29.94 in 9.0 mi North 10.4 mph - N/A   Overcast
10:55 AM 19.0 °F 7.5 °F 14.0 °F 81% 29.99 in 7.0 mi NNW 10.4 mph - N/A   Overcast
11:55 AM 19.9 °F 9.3 °F 14.0 °F 78% 29.99 in 9.0 mi NNW 9.2 mph - N/A   Overcast
12:55 PM 21.9 °F 11.7 °F 16.0 °F 78% 29.99 in 9.0 mi North 9.2 mph - N/A   Overcast
1:55 PM 23.0 °F 13.1 °F 17.1 °F 78% 30.00 in 10.0 mi NNW 9.2 mph - N/A   Overcast
2:55 PM 24.1 °F 13.7 °F 19.0 °F 81% 30.02 in 7.0 mi North 10.4 mph - 0.00 in   Overcast
3:21 PM 24.1 °F 13.7 °F 19.0 °F 81% 29.97 in 2.5 mi North 10.4 mph - 0.00 in Snow Light Snow
3:27 PM 24.1 °F 13.7 °F 19.0 °F 81% 29.97 in 3.0 mi NNW 10.4 mph - 0.00 in Snow Light Snow
3:50 PM 24.8 °F 15.3 °F 19.4 °F 80% 29.98 in 7.0 mi NNW 9.2 mph - 0.00 in   Scattered Clouds
3:55 PM 24.1 °F 14.4 °F 19.0 °F 81% 30.04 in 7.0 mi NNW 9.2 mph - 0.00 in   Partly Cloudy
4:55 PM 25.0 °F 16.3 °F 18.0 °F 75% 30.08 in 10.0 mi NNW 8.1 mph - N/A   Mostly Cloudy
5:55 PM 24.1 °F 17.0 °F 18.0 °F 77% 30.11 in 10.0 mi NNW 5.8 mph - N/A   Overcast
6:55 PM 24.1 °F 16.0 °F 18.0 °F 77% 30.14 in 10.0 mi NNW 6.9 mph - N/A   Overcast
7:52 PM 23.0 °F 13.1 °F 17.6 °F 80% 30.11 in 10.0 mi NNW 9.2 mph - N/A   Mostly Cloudy
7:55 PM 23.0 °F 12.4 °F 17.1 °F 78% 30.17 in 10.0 mi NNW 10.4 mph - N/A   Mostly Cloudy
8:53 PM 24.8 °F 13.4 °F 17.6 °F 74% 30.13 in 10.0 mi NNW 12.7 mph - N/A   Overcast
8:55 PM 24.1 °F 13.1 °F 18.0 °F 77% 30.18 in 10.0 mi North 11.5 mph - N/A   Overcast
9:55 PM 23.0 °F 9.6 °F 17.1 °F 78% 30.21 in 9.0 mi NNW 16.1 mph 20.7 mph N/A   Overcast
10:55 PM 21.0 °F 7.6 °F 15.1 °F 78% 30.23 in 10.0 mi NNW 15.0 mph 21.9 mph N/A   Overcast
11:18 PM 19.0 °F 4.5 °F 12.0 °F 74% 30.19 in 10.0 mi NNW 16.1 mph 23.0 mph N/A   Overcast
11:55 PM 18.0 °F 3.6 °F 10.0 °F 71% 30.26 in 10.0 mi NNW 15.0 mph - N/A   Overcast